Location: Asheville, NC
(35.6000°N, 82.5500°W)
Time: 18:29:31
(UTC-04:00)

NO-84 - Pass Details

Date: 17 March 2018
Orbit: 334 x 555 km, 55.0° (Epoch: 14 June)

Event Time Altitude Azimuth Distance (km) Brightness Sun altitude
Rises 22:22:26 0° 247° (WSW) 2,706 ? -32.9°
Reaches altitude 10° 22:24:49 10° 257° (WSW) 1,834 ? -33.4°
Enters shadow 22:25:49 16° 266° (W) 1,505 ? -33.6°
